When you browse on this site, cookies collect data to enhance your experience and personalize the content and advertising you see.
Visit our Privacy Policy to learn more. By continuing to use the site, you agree to this use of cookies and data.
  • In Hungary
  • List of Countries
  • For 7 days
  • Water Temperature
  • Weather Map
  • News
  • Weather Widgets
  • user-avatar
    Login

    Hourly Weather Segrate

    Today, 20 November, Wednesday

    Time Temperature Precipitation Wind Pressure Humidity
    00:00 +11°C° 0.1 mm 1 mps 751 mmHg 84%
    01:00 +11°C° 0 mm 1 mps 751 mmHg 87%
    02:00 +11°C° 0.2 mm 1 mps 750 mmHg 88%
    03:00 +11°C° 0.2 mm 1 mps 750 mmHg 88%
    04:00 +10°C° 0.2 mm 0 mps 750 mmHg 89%
    05:00 +10°C° 0.1 mm 0 mps 749 mmHg 88%
    06:00 +11°C° 0.1 mm 1 mps 749 mmHg 88%
    07:00 +11°C° 0 mm 1 mps 750 mmHg 86%
    08:00 +11°C° 0 mm 1 mps 749 mmHg 85%
    09:00 +11°C° 0 mm 1 mps 749 mmHg 85%
    10:00 +11°C° 0 mm 1 mps 749 mmHg 84%
    11:00 +12°C° 0 mm 1 mps 749 mmHg 82%
    12:00 +13°C° 0 mm 1 mps 748 mmHg 80%
    13:00 +13°C° 0 mm 2 mps 748 mmHg 78%
    14:00 +13°C° 0 mm 1 mps 748 mmHg 79%
    15:00 +13°C° 0 mm 1 mps 748 mmHg 80%
    16:00 +13°C° 0 mm 1 mps 748 mmHg 81%
    17:00 +12°C° 0 mm 1 mps 748 mmHg 84%
    18:00 +11°C° 0 mm 1 mps 748 mmHg 86%
    19:00 +11°C° 0 mm 1 mps 748 mmHg 89%
    20:00 +10°C° 0 mm 1 mps 748 mmHg 89%
    21:00 +10°C° 0 mm 1 mps 748 mmHg 88%
    22:00 +10°C° 0 mm 1 mps 748 mmHg 88%
    23:00 +10°C° 0 mm 1 mps 748 mmHg 88%

    Tomorrow, 21 November, Thursday

    Time Temperature Precipitation Wind Pressure Humidity
    00:00 +10°C° 0 mm 1 mps 748 mmHg 87%
    01:00 +10°C° 0 mm 1 mps 748 mmHg 87%
    02:00 +9°C° 0 mm 0 mps 748 mmHg 86%
    03:00 +9°C° 0 mm 0 mps 748 mmHg 86%
    04:00 +9°C° 0 mm 0 mps 747 mmHg 86%
    05:00 +9°C° 0.1 mm 0 mps 747 mmHg 87%
    06:00 +9°C° 0.1 mm 0 mps 748 mmHg 88%
    07:00 +8°C° 0.1 mm 0 mps 748 mmHg 89%
    08:00 +9°C° 0 mm 0 mps 748 mmHg 87%
    09:00 +9°C° 0 mm 0 mps 748 mmHg 86%
    10:00 +10°C° 0 mm 0 mps 748 mmHg 84%
    11:00 +11°C° 0.2 mm 1 mps 748 mmHg 84%
    12:00 +11°C° 0.2 mm 1 mps 747 mmHg 83%
    13:00 +12°C° 0.2 mm 1 mps 747 mmHg 82%
    14:00 +12°C° 0.1 mm 1 mps 747 mmHg 81%
    15:00 +12°C° 0.1 mm 1 mps 747 mmHg 80%
    16:00 +12°C° 0.1 mm 1 mps 747 mmHg 79%
    17:00 +11°C° 0 mm 1 mps 747 mmHg 81%
    18:00 +11°C° 0 mm 1 mps 748 mmHg 83%
    19:00 +10°C° 0 mm 1 mps 748 mmHg 85%
    20:00 +10°C° 0 mm 1 mps 748 mmHg 85%
    21:00 +9°C° 0 mm 2 mps 748 mmHg 85%
    22:00 +9°C° 0 mm 2 mps 749 mmHg 86%
    23:00 +9°C° 0 mm 2 mps 748 mmHg 85%

    Day after tomorrow, 22 November, Friday

    Time Temperature Precipitation Wind Pressure Humidity
    00:00 +9°C° 0 mm 2 mps 748 mmHg 84%
    01:00 +9°C° 0 mm 2 mps 748 mmHg 83%
    02:00 +9°C° 0.3 mm 2 mps 748 mmHg 83%
    03:00 +9°C° 0.3 mm 2 mps 748 mmHg 83%
    04:00 +9°C° 0.3 mm 2 mps 748 mmHg 84%
    05:00 +9°C° 1.7 mm 2 mps 748 mmHg 86%
    06:00 +8°C° 1.7 mm 2 mps 748 mmHg 88%
    07:00 +8°C° 1.7 mm 2 mps 748 mmHg 90%
    08:00 +8°C° 1.1 mm 2 mps 748 mmHg 90%
    09:00 +9°C° 1.1 mm 2 mps 748 mmHg 89%
    10:00 +9°C° 1.1 mm 3 mps 748 mmHg 89%
    11:00 +9°C° 0.2 mm 3 mps 748 mmHg 86%
    12:00 +9°C° 0.2 mm 3 mps 748 mmHg 84%
    13:00 +10°C° 0.2 mm 2 mps 748 mmHg 82%
    14:00 +10°C° 0.1 mm 2 mps 747 mmHg 82%
    15:00 +10°C° 0.1 mm 2 mps 747 mmHg 82%
    16:00 +10°C° 0.1 mm 2 mps 747 mmHg 82%
    17:00 +10°C° 0 mm 2 mps 747 mmHg 83%
    18:00 +10°C° 0 mm 2 mps 747 mmHg 85%
    19:00 +10°C° 0 mm 2 mps 748 mmHg 86%
    20:00 +9°C° 0.1 mm 2 mps 748 mmHg 87%
    21:00 +9°C° 0.1 mm 2 mps 747 mmHg 87%
    22:00 +9°C° 0.1 mm 2 mps 747 mmHg 87%
    23:00 +9°C° 0.5 mm 2 mps 747 mmHg 86%

    23 November, Saturday

    Time Temperature Precipitation Wind Pressure Humidity
    00:00 +9°C° 0.5 mm 3 mps 747 mmHg 85%
    01:00 +9°C° 0.5 mm 3 mps 746 mmHg 84%
    02:00 +10°C° 0.9 mm 3 mps 746 mmHg 85%
    03:00 +10°C° 0.9 mm 4 mps 746 mmHg 85%
    04:00 +10°C° 0.9 mm 4 mps 745 mmHg 86%
    05:00 +10°C° 0.5 mm 4 mps 745 mmHg 84%
    06:00 +10°C° 0.5 mm 4 mps 745 mmHg 83%
    07:00 +10°C° 0.5 mm 4 mps 745 mmHg 82%
    08:00 +9°C° 0.3 mm 5 mps 745 mmHg 82%
    09:00 +10°C° 0.3 mm 5 mps 745 mmHg 83%
    10:00 +10°C° 0.3 mm 5 mps 745 mmHg 83%
    11:00 +10°C° 0.4 mm 6 mps 744 mmHg 83%
    12:00 +10°C° 0.4 mm 6 mps 744 mmHg 83%
    13:00 +11°C° 0.4 mm 7 mps 744 mmHg 83%
    14:00 +11°C° 0.4 mm 6 mps 744 mmHg 82%
    15:00 +11°C° 0.4 mm 6 mps 744 mmHg 80%
    16:00 +11°C° 0.4 mm 6 mps 744 mmHg 79%
    17:00 +11°C° 0.6 mm 6 mps 744 mmHg 79%
    18:00 +11°C° 0.6 mm 6 mps 745 mmHg 79%
    19:00 +11°C° 0.6 mm 6 mps 745 mmHg 80%
    20:00 +12°C° 0.7 mm 5 mps 745 mmHg 82%
    21:00 +12°C° 0.7 mm 4 mps 746 mmHg 83%
    22:00 +11°C° 0.7 mm 4 mps 746 mmHg 85%
    23:00 +11°C° 0.5 mm 3 mps 746 mmHg 84%

    24 November, Sunday

    Time Temperature Precipitation Wind Pressure Humidity
    00:00 +11°C° 0.5 mm 3 mps 746 mmHg 83%
    01:00 +12°C° 0.5 mm 2 mps 746 mmHg 83%
    02:00 +12°C° 0.2 mm 2 mps 746 mmHg 82%
    03:00 +12°C° 0.2 mm 2 mps 746 mmHg 81%
    04:00 +12°C° 0.2 mm 2 mps 746 mmHg 80%
    05:00 +13°C° 0.2 mm 2 mps 746 mmHg 80%
    06:00 +13°C° 0.2 mm 2 mps 747 mmHg 79%
    07:00 +13°C° 0.2 mm 2 mps 747 mmHg 79%
    08:00 +13°C° 0 mm 2 mps 747 mmHg 79%
    09:00 +13°C° 0 mm 1 mps 748 mmHg 79%
    10:00 +13°C° 0 mm 1 mps 748 mmHg 79%
    11:00 +14°C° 0 mm 1 mps 748 mmHg 75%
    12:00 +15°C° 0 mm 1 mps 748 mmHg 72%
    13:00 +15°C° 0 mm 1 mps 748 mmHg 68%
    14:00 +15°C° 0 mm 1 mps 748 mmHg 69%
    15:00 +15°C° 0 mm 1 mps 748 mmHg 70%
    16:00 +15°C° 0 mm 1 mps 749 mmHg 71%
    17:00 +14°C° 0 mm 1 mps 749 mmHg 73%
    18:00 +13°C° 0 mm 1 mps 749 mmHg 74%
    19:00 +13°C° 0 mm 1 mps 749 mmHg 76%
    20:00 +12°C° 0 mm 1 mps 749 mmHg 75%
    21:00 +12°C° 0 mm 1 mps 750 mmHg 75%
    22:00 +12°C° 0 mm 1 mps 750 mmHg 75%
    23:00 +12°C° 0 mm 1 mps 750 mmHg 75%

    25 November, Monday

    Time Temperature Precipitation Wind Pressure Humidity
    00:00 +11°C° 0 mm 1 mps 750 mmHg 75%
    01:00 +11°C° 0 mm 1 mps 750 mmHg 75%
    02:00 +11°C° 0 mm 1 mps 750 mmHg 75%
    03:00 +11°C° 0 mm 1 mps 750 mmHg 74%
    04:00 +11°C° 0 mm 1 mps 749 mmHg 74%
    05:00 +10°C° 0 mm 1 mps 749 mmHg 74%
    06:00 +10°C° 0 mm 1 mps 749 mmHg 74%
    07:00 +10°C° 0 mm 1 mps 749 mmHg 75%
    08:00 +11°C° 0 mm 1 mps 749 mmHg 72%
    09:00 +11°C° 0 mm 1 mps 749 mmHg 69%
    10:00 +12°C° 0 mm 1 mps 750 mmHg 67%
    11:00 +13°C° 0 mm 1 mps 749 mmHg 63%
    12:00 +14°C° 0 mm 1 mps 749 mmHg 59%
    13:00 +15°C° 0 mm 1 mps 749 mmHg 56%
    14:00 +15°C° 0 mm 1 mps 749 mmHg 58%
    15:00 +13°C° 0 mm 0 mps 749 mmHg 60%
    16:00 +13°C° 0 mm 0 mps 749 mmHg 62%
    17:00 +13°C° 0 mm 1 mps 749 mmHg 64%
    18:00 +12°C° 0 mm 1 mps 749 mmHg 66%
    19:00 +12°C° 0 mm 1 mps 749 mmHg 69%
    20:00 +12°C° 0 mm 1 mps 750 mmHg 70%
    21:00 +11°C° 0 mm 1 mps 750 mmHg 71%
    22:00 +11°C° 0 mm 1 mps 750 mmHg 72%
    23:00 +11°C° 0 mm 1 mps 750 mmHg 72%
    Show more